Vorticity
7 7 7 7 7 7 7 4 2 1 1 1 1 1 1 1 1 1 1 1 2 2 2 2 3 2 3 3 3 3 2 3 3 2 2 3 2 2 3 3 3 3 3 3 4 5 5 5 6 7 7 6 6 5 5 5 3 4 4 4 10 9 2 3 9 9 4 5 8 10 8 8 10 4 2 6 7 7 6 6 6 5 4 3 3 3 4 4
4 4 4 4 5 5 5 4 2 2 1 1 1 1 1 1 1 1 1 1 1 1 2 2 2 2 3 3 3 3 3 4 3 4 4 4 4 4 4 4 4 4 3 3 4 5 6 7 7 7 5 2 2 3 3 4 3 3 1 4 10 5 2 9 9 3 3 7 8 9 9 9 9 4 4 7 7 7 7 7 6 6 5 4 4 5 6 5
2 2 2 3 3 3 3 3 2 2 1 1 1 1 1 1 1 1 1 1 1 1 2 2 2 3 3 4 4 4 5 5 5 6 6 5 6 5 5 4 3 3 4 5 7 8 7 6 3 1 1 1 3 3 4 5 3 2 4 8 10 5 7 10 5 3 6 6 8 10 10 9 7 5 8 8 7 9 8 6 5 6 5 3 4 5 6 5
2 2 2 2 2 1 1 2 2 1 1 1 1 1 1 0 1 1 1 1 1 1 1 2 3 4 4 5 6 6 7 7 8 8 7 6 6 5 5 4 5 7 9 10 9 7 3 -0 -1 0 2 3 3 3 5 5 3 5 7 7 7 5 8 9 5 8 8 7 10 10 9 10 8 8 8 4 7 13 10 7 6 5 4 4 4 6 6 5
2 2 2 2 2 2 1 1 1 1 1 1 0 1 0 0 1 1 1 1 1 1 2 3 3 4 5 6 7 8 8 9 9 7 6 5 5 6 7 7 9 9 9 7 4 0 -2 -2 0 2 2 2 2 2 4 3 2 5 4 2 4 2 5 10 6 7 10 10 10 8 9 10 10 10 4 3 10 13 11 8 7 7 7 6 7 7 6 5
2 2 2 2 2 2 2 2 2 1 1 1 1 1 1 1 1 1 2 2 2 2 3 4 4 6 6 8 8 7 7 9 7 4 4 4 6 9 8 8 8 6 4 1 -1 -2 -1 1 2 2 1 1 2 3 4 3 3 2 2 4 3 -0 4 8 3 4 9 11 11 9 9 9 10 6 1 14 19 12 12 8 6 10 11 13 13 12 9 7
2 2 2 2 3 2 3 3 2 2 2 2 2 1 1 1 2 2 2 3 3 3 4 5 5 7 8 8 7 6 8 9 5 3 5 7 8 9 7 6 4 2 1 -0 -0 1 3 3 3 2 2 2 2 3 3 3 2 2 6 6 2 1 4 2 -0 5 7 8 11 8 9 10 6 3 7 26 28 13 9 4 2 7 9 13 14 13 12 10
4 4 3 3 3 3 3 3 2 3 2 2 2 2 2 3 3 3 4 4 4 4 5 5 7 7 8 8 5 7 11 6 2 3 6 7 6 5 4 2 1 1 1 1 2 2 2 2 1 1 1 0 -0 1 1 2 3 5 7 5 3 6 4 0 2 6 4 4 7 4 9 10 1 2 10 21 23 11 5 3 5 8 7 8 8 8 9 11
10 8 7 6 5 5 5 5 5 5 4 4 4 4 5 5 5 5 5 5 5 7 7 8 9 8 8 7 5 9 9 1 1 4 5 5 3 2 1 0 1 2 2 2 2 1 1 1 0 0 -0 0 1 2 2 3 4 4 5 5 7 8 4 4 4 4 3 4 5 4 8 6 -5 -3 2 6 10 4 1 6 9 9 8 6 5 4 3 7
13 12 12 12 11 11 11 11 11 11 11 11 11 11 11 10 11 10 9 9 9 9 10 10 9 8 7 6 6 8 3 0 3 4 4 4 2 1 0 2 3 3 3 3 4 4 5 5 5 5 4 4 5 5 5 5 5 5 5 6 7 7 6 6 5 4 5 4 5 4 2 -1 -7 -7 -4 -2 1 -0 1 5 5 6 8 8 8 8 5 4
9 10 10 11 11 12 12 12 12 12 12 12 12 12 12 12 11 11 11 10 10 10 9 8 6 6 5 4 6 3 -2 1 4 3 3 2 1 2 3 4 4 4 5 5 6 6 6 7 6 6 6 7 7 6 6 6 6 7 7 7 6 6 7 7 8 7 5 3 2 1 -2 -2 -1 -3 -1 0 0 1 3 4 3 4 6 9 11 12 12 10
4 5 6 6 7 7 7 7 6 7 7 7 7 7 8 8 8 8 8 7 7 7 6 6 5 4 2 3 4 -0 -2 1 1 1 3 3 4 6 6 5 4 4 5 5 5 4 4 4 4 5 7 8 8 9 10 10 9 8 7 8 7 7 8 9 9 5 2 1 2 2 1 3 5 2 2 2 0 2 3 5 5 4 5 8 9 10 13 15
1 1 2 2 3 3 3 3 3 3 3 4 4 4 5 5 5 5 5 5 5 4 4 3 3 2 1 2 2 0 3 4 2 3 4 4 6 5 4 4 4 4 4 3 3 2 3 4 5 5 7 9 11 12 14 15 13 10 9 9 9 8 9 7 5 3 3 3 4 4 2 4 7 5 4 2 -1 1 3 5 7 6 7 8 9 10 10 11
3 2 2 1 1 1 1 1 1 1 1 2 2 2 2 2 3 3 3 3 2 2 2 1 1 0 0 2 2 4 6 4 4 6 4 5 4 3 4 4 4 4 3 2 2 3 3 5 6 5 6 8 11 11 13 15 11 10 11 8 8 10 9 8 7 6 7 6 6 5 2 5 8 7 6 2 -1 2 3 6 7 7 9 9 11 11 9 9
5 4 4 4 3 3 3 2 2 2 2 2 2 2 2 2 2 2 2 2 2 3 2 2 2 2 3 5 5 5 5 4 5 6 6 6 5 4 5 4 4 3 2 2 2 2 3 6 7 7 6 6 9 9 10 9 5 7 10 6 6 9 7 9 11 10 9 8 7 5 3 5 8 8 7 4 3 4 5 6 6 6 8 9 11 11 9 9
5 5 5 5 5 5 5 5 4 4 4 3 4 3 3 4 4 4 4 4 4 4 4 5 5 4 5 6 4 5 4 4 5 5 6 5 5 5 5 4 4 3 3 2 1 1 5 8 9 8 7 6 7 8 7 4 2 3 6 4 4 5 4 7 10 12 12 8 7 6 5 5 7 7 7 6 6 5 5 6 6 6 7 8 10 11 9 8
6 6 6 6 7 7 7 7 6 7 6 6 5 5 4 4 4 4 4 4 4 3 3 3 3 4 4 4 5 6 5 5 6 7 7 6 7 6 5 6 4 3 2 1 -0 2 6 8 8 7 6 6 6 8 7 4 2 1 2 2 1 1 3 4 4 10 14 11 8 8 7 7 6 7 8 8 7 6 6 7 7 7 9 10 11 11 12 11
5 5 6 6 6 6 6 7 7 7 7 7 7 7 6 5 5 5 4 4 4 3 4 3 4 4 5 5 6 5 5 6 6 6 6 5 5 5 5 5 3 3 2 1 1 2 5 6 6 6 7 9 9 8 6 4 3 2 2 2 1 2 4 4 4 6 10 10 8 6 6 7 7 9 10 8 9 9 8 9 9 10 12 12 11 12 14 15
5 5 5 5 5 5 5 6 6 6 6 6 7 7 7 7 6 6 6 6 6 6 6 6 5 5 5 6 5 5 5 6 6 6 7 6 6 6 5 4 4 4 3 2 2 2 4 5 6 7 10 11 9 5 4 5 5 4 3 3 4 6 7 9 9 5 6 10 10 8 7 7 8 9 10 10 11 9 9 11 11 11 12 11 12 13 13 15
6 5 6 5 5 5 5 5 5 5 5 6 6 6 6 6 6 6 6 6 6 6 6 6 6 6 6 7 7 7 7 7 7 8 8 7 7 6 5 5 5 5 4 4 3 4 4 4 7 10 9 7 4 4 5 6 7 6 7 6 6 7 8 11 12 7 6 7 8 10 10 8 8 9 9 9 9 8 10 10 8 8 10 12 13 11 10 11
4 4 4 4 4 4 4 4 4 4 4 4 4 5 5 5 6 6 6 5 5 6 6 5 6 6 6 6 5 5 6 6 7 7 7 7 7 7 6 6 6 6 5 5 5 5 5 4 7 9 5 3 5 6 7 7 8 8 9 9 8 9 10 9 10 9 8 6 5 8 10 7 5 5 6 6 6 7 9 9 5 4 8 12 9 7 7 7
3 3 3 3 3 3 3 3 3 4 3 3 4 4 5 5 5 6 7 7 6 6 6 5 6 6 5 6 6 5 5 5 6 7 7 7 7 7 7 7 7 7 6 7 8 8 7 5 6 6 4 3 5 5 6 7 8 9 9 8 8 10 11 9 10 11 10 8 5 7 7 3 1 3 5 6 5 6 8 10 7 5 7 7 5 5 5 4
7 6 5 4 4 4 4 5 5 6 6 6 6 6 8 8 7 7 8 9 8 6 6 6 6 6 6 6 6 6 7 8 9 9 9 10 9 9 9 8 9 9 9 10 10 10 8 5 5 6 5 6 6 6 7 7 7 8 8 8 8 10 11 10 9 9 10 10 9 7 4 1 1 5 7 7 7 9 9 9 10 7 3 2 5 6 2 -0
7 7 5 5 5 6 6 6 6 7 7 6 5 5 6 7 8 7 7 9 9 6 5 6 5 5 5 5 6 7 8 9 9 10 10 9 8 9 9 9 9 10 12 12 10 11 10 9 9 8 8 9 9 8 7 6 6 5 6 8 9 8 9 10 9 8 8 10 9 5 3 5 6 5 5 6 6 8 6 4 6 5 1 -0 2 3 -0 -1
5 6 7 7 6 6 6 6 7 7 7 7 6 5 5 4 4 5 4 6 6 4 5 7 6 5 5 5 6 5 6 7 7 8 9 10 11 11 10 11 11 11 11 11 9 9 11 12 11 10 11 11 10 10 8 8 6 4 7 9 8 7 7 9 8 7 7 6 6 4 3 7 9 6 3 2 2 2 2 3 5 5 0 -3 -2 2 3 1
7 8 7 6 6 6 5 5 7 8 8 9 10 11 11 10 10 11 11 10 7 3 5 7 7 10 11 11 12 10 11 12 11 11 11 11 12 11 12 13 14 14 12 11 10 10 14 14 12 13 13 11 13 16 13 10 8 7 8 9 9 9 7 7 7 6 6 5 4 3 0 -1 3 5 2 -0 1 1 3 5 4 2 -1 -3 0 5 5 2
8 9 9 9 8 7 7 7 10 10 9 10 10 10 11 12 14 16 17 17 11 6 7 9 10 13 15 16 19 17 15 12 10 12 11 10 12 12 12 12 11 11 9 9 10 11 14 12 11 12 10 10 14 16 15 11 9 9 9 7 9 10 8 8 7 5 5 3 3 4 3 0 -1 2 2 0 1 1 3 2 0 3 6 5 5 4 1 -1
6 6 8 9 10 11 12 13 13 12 12 14 13 11 9 9 9 11 14 17 15 10 9 11 12 13 12 13 18 19 18 15 10 11 13 14 14 10 6 3 1 3 5 7 9 12 12 11 12 11 11 15 14 11 13 14 13 13 12 9 7 7 8 8 7 7 6 3 4 4 5 6 3 1 2 1 -0 1 2 -1 -0 3 3 3 6 8 7 6
12 11 9 8 11 14 13 12 13 13 15 18 20 19 16 12 10 11 10 8 9 10 9 9 10 13 13 13 17 20 23 25 21 16 12 10 5 -1 -4 -2 2 5 7 7 5 6 7 7 6 6 9 12 9 10 13 14 15 16 14 12 9 7 7 7 7 9 8 5 4 5 5 9 6 1 1 1 0 1 0 -2 -1 -1 -1 5 11 12 13 13
21 19 16 12 13 13 12 13 12 11 12 14 16 18 17 15 12 11 8 5 11 15 12 10 8 9 11 9 10 12 13 13 12 9 6 3 1 -4 -6 -1 3 3 4 5 3 1 2 2 1 4 7 5 5 9 11 10 11 11 13 13 12 11 8 7 8 7 11 12 6 1 4 10 8 0 -1 1 -0 -0 -1 -3 -2 1 4 8 10 10 9 7
16 14 14 12 10 10 11 12 11 11 9 5 4 6 9 11 8 5 5 8 13 13 8 6 4 4 7 4 3 5 5 4 2 1 1 2 0 -3 -3 0 3 3 3 3 3 2 1 3 5 6 5 2 3 3 1 4 5 5 9 9 9 10 9 11 9 4 9 15 7 -2 0 9 9 -2 -3 0 -1 -0 -1 -3 -1 2 6 7 5 3 -3 -10
9 10 14 14 14 15 12 8 10 12 10 6 6 5 6 6 2 5 10 9 9 7 4 4 4 4 6 5 3 2 3 4 3 1 0 -1 -2 -4 -4 -1 4 7 4 1 2 2 -1 0 4 4 0 -2 -1 1 3 6 5 1 1 4 7 6 4 6 6 5 10 14 9 0 0 11 10 -1 -2 -1 -3 -2 -2 -2 -1 0 8 13 5 -3 -9 -12
4 6 10 13 14 14 10 4 2 6 7 8 7 6 7 3 -0 5 8 3 1 3 3 3 3 2 0 0 1 2 4 4 3 2 1 -2 -3 -3 -1 2 5 6 5 4 -1 -4 -3 -5 -5 -1 2 -1 -2 3 7 6 2 -0 1 5 5 2 7 13 12 10 10 9 8 4 6 14 11 0 -3 -4 -6 -7 -10 -8 -2 2 6 4 -7 -10 -5 -0
10 5 3 8 5 -1 -1 -3 -4 -0 2 4 2 1 3 2 2 4 3 0 1 3 5 6 5 3 2 2 2 3 4 2 1 1 3 4 5 7 8 8 8 7 7 6 0 2 6 2 -1 2 3 0 -1 1 4 4 5 6 7 6 2 5 14 16 10 9 12 16 15 10 10 15 13 2 -5 -5 -6 -11 -11 -4 4 6 2 -6 -8 -1 5 8
-0 -11 -12 -5 -4 -6 -2 1 6 9 9 11 9 4 5 4 1 2 2 3 5 5 7 7 7 7 7 7 7 6 4 4 6 7 8 10 10 10 9 9 11 13 11 10 13 16 15 12 14 13 5 4 5 2 1 3 2 2 1 0 4 12 13 8 7 12 17 19 12 5 7 11 13 10 1 -3 -5 -3 9 19 16 11 8 6 11 16 13 13
-3 -4 1 6 7 7 7 8 13 12 12 14 5 -3 1 2 -2 1 3 4 5 7 9 10 10 9 8 6 7 8 7 7 9 8 8 9 7 5 5 7 9 8 9 12 15 16 13 12 12 7 4 6 7 5 4 2 1 5 8 9 14 16 10 6 10 11 10 9 7 9 13 11 15 19 11 2 4 12 20 16 9 12 17 17 17 14 10 9
14 18 18 17 17 14 12 13 11 8 10 8 -4 -8 2 5 6 11 10 10 11 11 11 10 7 7 9 9 11 12 10 7 7 6 6 6 6 5 5 6 5 5 8 8 6 7 8 10 10 7 8 12 13 13 10 6 7 13 15 15 14 9 4 5 9 9 9 10 11 15 20 23 24 25 21 15 13 11 5 1 7 14 13 9 7 7 6 9
13 16 15 15 12 8 8 7 3 2 2 -4 -10 -2 9 12 14 15 11 11 11 8 7 7 8 9 9 9 10 9 7 6 7 6 7 7 9 9 7 5 5 6 6 6 7 8 9 16 21 17 12 13 12 6 3 7 13 15 14 13 10 7 9 11 10 9 10 9 10 15 22 25 19 17 26 27 18 8 3 7 16 15 9 6 5 5 6 9
0 3 7 8 4 3 2 -1 -4 -3 -4 -6 0 11 13 10 9 7 6 7 7 7 9 9 10 10 7 6 7 6 5 6 5 5 7 8 9 9 7 7 8 7 7 10 10 11 15 18 13 8 10 9 1 -3 5 17 21 17 13 10 7 6 8 9 6 6 9 8 8 12 12 5 -1 5 16 15 10 12 14 15 14 12 11 10 10 10 9 9
-10 -9 -5 -4 -5 -2 -1 -0 0 0 1 5 8 9 6 3 3 1 1 2 3 5 6 5 5 4 5 7 6 6 7 7 6 6 6 4 4 5 4 7 10 9 8 9 7 10 16 9 -2 2 13 9 3 10 20 20 14 10 8 4 4 5 6 7 6 4 6 6 6 9 3 -4 1 9 11 11 18 24 24 20 16 13 12 9 9 11 12 15
-9 -10 -6 -6 -8 -5 -2 1 2 0 2 4 2 1 3 5 4 3 2 1 1 3 4 5 6 5 7 8 7 8 8 6 6 6 6 7 9 10 8 8 9 7 7 8 7 8 7 2 0 6 9 6 9 15 14 7 3 4 3 2 4 8 9 11 6 2 8 10 8 7 3 3 11 13 9 13 19 20 21 24 24 22 19 14 11 11 12 14
-1 -3 -1 -1 -2 1 1 -0 0 -2 -1 4 6 7 8 7 7 8 9 10 11 12 12 11 10 11 11 10 10 10 8 7 8 8 9 11 11 11 11 12 11 9 11 11 10 10 9 7 7 5 5 8 9 7 3 1 1 3 2 3 7 8 8 9 5 6 17 18 12 12 11 11 12 11 15 24 28 31 37 37 35 33 32 29 27 24 20 14
7 7 9 8 6 7 4 4 7 6 8 13 14 13 13 13 15 14 15 19 20 19 17 15 15 15 12 11 11 10 10 10 9 11 13 12 10 10 12 14 13 12 13 11 9 10 12 11 10 8 9 8 4 4 5 4 6 10 9 9 10 9 11 13 11 14 19 15 10 10 7 3 4 10 21 25 20 18 18 14 13 14 15 15 12 7 3 2
9 10 11 9 10 13 13 17 23 24 26 27 22 21 22 20 20 19 16 15 13 11 11 11 10 10 10 11 10 10 14 15 12 12 13 10 10 11 11 11 10 11 11 10 11 12 11 9 8 11 12 8 5 7 7 7 11 13 12 13 13 13 14 13 13 18 15 6 6 10 8 8 12 14 11 3 -5 -8 -10 -11 -10 -8 -5 -4 -5 -4 -0 5
11 11 11 12 15 16 16 19 21 19 18 19 17 18 17 15 17 20 17 13 10 9 9 8 8 9 8 8 8 9 12 12 9 9 8 7 7 7 8 8 9 10 10 12 17 21 19 14 10 11 13 11 10 10 9 11 13 12 13 15 15 16 15 14 16 14 5 5 16 20 17 14 11 8 4 0 -0 -2 -7 -7 -4 1 4 4 3 5 7 7
13 14 17 19 18 16 16 17 15 11 11 12 9 7 7 7 10 12 9 11 14 16 15 13 13 12 9 10 12 11 9 9 6 4 4 5 6 6 7 7 7 7 6 5 4 1 1 2 1 3 3 2 5 8 9 11 10 7 7 5 4 6 7 6 7 1 3 22 29 19 17 20 17 13 8 1 -2 -2 -0 5 12 16 12 4 0 -1 -0 2
15 14 15 15 13 12 12 9 9 9 9 7 4 2 4 5 7 8 10 13 15 13 11 8 8 10 11 14 16 12 11 12 9 8 11 12 12 12 11 10 10 9 7 6 3 -2 -2 1 2 3 3 4 6 8 9 10 9 8 7 6 6 6 2 -1 -2 -3 4 12 -1 -15 -9 -4 -11 -15 -15 -12 -3 5 9 10 10 7 1 -3 -2 1 5 10
15 13 12 11 8 8 8 7 7 5 4 5 4 4 6 7 8 10 12 10 6 5 6 4 6 11 12 12 12 9 9 12 11 11 14 13 13 13 11 11 12 11 10 10 10 8 8 8 8 8 7 8 9 9 10 10 9 9 10 10 9 6 4 4 5 7 8 2 -9 -9 -3 -5 -10 -7 -2 4 11 12 10 10 8 7 7 11 17 21 23 23
11 11 12 11 9 8 9 9 8 6 8 11 8 6 10 11 10 10 10 6 3 6 9 5 6 12 12 11 11 10 10 12 12 12 12 12 11 11 11 12 11 10 10 10 9 8 8 8 9 8 7 7 7 6 6 8 9 10 10 9 9 7 8 9 10 11 13 12 11 15 15 12 12 13 12 13 13 11 12 12 10 10 12 15 16 14 11 9
8 8 7 7 7 8 8 7 8 8 9 8 5 9 14 10 6 7 7 5 6 9 8 6 8 13 13 11 12 11 11 12 11 11 12 12 11 11 12 12 10 10 10 11 13 13 12 10 10 10 10 8 8 9 10 9 9 9 8 7 6 8 10 12 11 12 12 10 8 9 9 8 7 8 11 14 14 14 16 15 15 16 16 15 11 5 2 1
8 7 6 6 7 8 7 8 9 8 5 5 8 12 11 7 7 10 8 6 8 9 10 10 11 12 10 9 8 6 7 7 6 7 7 7 6 7 8 7 6 6 8 10 12 12 12 11 11 13 12 7 9 15 12 10 11 10 7 6 5 8 10 9 10 11 11 8 7 8 7 8 14 18 19 16 13 12 12 13 15 15 15 14 12 9 7 4
9 8 9 9 8 8 8 10 10 9 9 11 11 9 7 8 11 14 13 12 11 10 10 9 8 8 6 5 4 4 4 3 3 3 3 4 4 4 7 6 4 4 6 9 9 7 9 9 8 12 11 5 9 13 10 10 12 6 3 6 9 9 9 10 12 11 11 11 12 14 15 15 17 17 13 11 8 6 5 5 5 5 5 4 2 1 -0 -1
Height
5874 5875 5875 5875 5876 5876 5876 5876 5877 5877 5877 5877 5877 5877 5877 5878 5878 5878 5878 5878 5878 5878 5878 5878 5878 5878 5878 5878 5877 5877 5877 5876 5876 5876 5875 5875 5875 5874 5874 5874 5873 5873 5873 5873 5872 5872 5871 5871 5870 5870 5870 5869 5869 5869 5869 5869 5868 5868 5869 5869 5869 5867 5866 5864 5863 5863 5864 5864 5863 5863 5862 5863 5862 5860 5860 5861 5860 5859 5859 5857 5856 5857 5855 5855 5856 5856 5857 5857
5872 5873 5873 5873 5874 5874 5874 5874 5875 5875 5875 5875 5875 5875 5875 5875 5875 5876 5876 5876 5876 5876 5876 5876 5876 5876 5876 5876 5875 5875 5875 5874 5874 5874 5873 5873 5873 5872 5872 5872 5872 5872 5871 5871 5870 5870 5869 5869 5868 5868 5868 5867 5867 5867 5867 5866 5866 5867 5867 5867 5867 5865 5864 5863 5860 5859 5860 5862 5861 5860 5860 5860 5859 5858 5858 5858 5857 5856 5856 5855 5853 5854 5853 5851 5852 5854 5854 5854
5870 5870 5871 5871 5871 5872 5872 5872 5872 5873 5873 5873 5873 5873 5873 5873 5873 5873 5873 5873 5873 5873 5874 5874 5874 5873 5873 5873 5873 5873 5873 5872 5871 5871 5871 5871 5871 5870 5870 5870 5870 5870 5869 5869 5868 5868 5868 5867 5866 5866 5866 5865 5865 5865 5864 5864 5864 5865 5864 5865 5864 5862 5862 5860 5858 5857 5857 5858 5859 5858 5857 5857 5856 5855 5855 5854 5854 5854 5854 5852 5850 5852 5851 5849 5849 5850 5851 5851
5867 5868 5868 5868 5869 5869 5870 5870 5870 5870 5870 5870 5870 5871 5871 5871 5871 5871 5871 5871 5871 5871 5871 5871 5871 5871 5871 5871 5871 5871 5871 5870 5869 5869 5869 5869 5869 5868 5868 5868 5868 5868 5867 5866 5866 5866 5866 5865 5864 5864 5864 5863 5863 5862 5862 5861 5862 5863 5862 5862 5862 5860 5860 5858 5855 5855 5854 5855 5856 5855 5855 5855 5853 5852 5851 5850 5851 5853 5852 5849 5847 5848 5848 5848 5847 5847 5847 5847
5864 5865 5865 5866 5866 5866 5867 5867 5868 5868 5868 5868 5868 5868 5868 5869 5868 5868 5868 5868 5868 5868 5868 5869 5869 5869 5869 5869 5869 5869 5869 5868 5866 5866 5867 5867 5866 5866 5866 5866 5865 5865 5865 5864 5864 5864 5863 5863 5862 5861 5861 5861 5861 5860 5859 5859 5858 5860 5860 5859 5858 5857 5858 5856 5854 5853 5852 5852 5852 5852 5852 5852 5851 5850 5848 5846 5847 5850 5850 5846 5845 5845 5845 5845 5845 5844 5844 5844
5861 5862 5862 5863 5863 5864 5864 5864 5865 5865 5865 5865 5865 5866 5866 5866 5866 5866 5866 5865 5866 5866 5866 5866 5866 5866 5866 5866 5867 5867 5867 5865 5863 5864 5864 5864 5864 5864 5864 5863 5863 5863 5862 5862 5861 5861 5861 5860 5859 5859 5859 5859 5858 5858 5856 5856 5855 5857 5858 5856 5855 5854 5855 5854 5852 5851 5850 5849 5848 5847 5848 5849 5848 5847 5846 5845 5846 5848 5846 5843 5842 5842 5842 5841 5842 5842 5841 5841
5858 5859 5859 5860 5860 5860 5861 5861 5861 5861 5862 5862 5863 5863 5863 5863 5863 5863 5862 5862 5863 5863 5863 5863 5863 5863 5863 5864 5864 5865 5865 5861 5859 5862 5862 5861 5861 5861 5861 5861 5861 5860 5860 5859 5859 5858 5858 5857 5856 5855 5856 5856 5856 5855 5853 5852 5852 5853 5854 5853 5852 5851 5852 5851 5850 5849 5848 5846 5845 5843 5844 5846 5843 5842 5845 5844 5845 5844 5841 5840 5839 5839 5840 5839 5839 5839 5838 5838
5854 5855 5855 5856 5856 5857 5857 5857 5858 5858 5858 5859 5859 5859 5860 5860 5860 5860 5859 5859 5859 5859 5860 5860 5860 5860 5861 5862 5862 5863 5862 5857 5856 5859 5859 5858 5858 5858 5858 5858 5858 5858 5857 5857 5856 5855 5855 5854 5853 5852 5852 5852 5852 5852 5850 5849 5849 5849 5850 5850 5849 5849 5848 5847 5847 5846 5844 5843 5842 5839 5841 5843 5839 5838 5843 5844 5842 5839 5836 5837 5837 5836 5836 5836 5835 5835 5835 5834
5850 5851 5852 5852 5853 5853 5853 5854 5854 5854 5855 5855 5855 5856 5856 5856 5856 5856 5856 5856 5856 5856 5856 5856 5857 5857 5858 5859 5860 5862 5859 5854 5854 5856 5855 5855 5855 5855 5856 5856 5855 5855 5854 5853 5852 5851 5851 5850 5850 5848 5848 5849 5849 5849 5847 5845 5846 5846 5845 5845 5846 5846 5845 5844 5844 5843 5840 5840 5837 5834 5836 5839 5836 5835 5841 5842 5839 5834 5832 5834 5834 5832 5833 5833 5832 5831 5831 5831
5847 5847 5848 5848 5849 5850 5850 5850 5850 5850 5851 5851 5851 5852 5852 5852 5852 5852 5852 5852 5852 5852 5853 5853 5854 5854 5855 5856 5858 5860 5855 5851 5853 5852 5851 5852 5852 5852 5853 5852 5852 5851 5850 5850 5849 5848 5847 5846 5846 5845 5844 5844 5845 5845 5844 5842 5842 5841 5840 5841 5842 5842 5842 5841 5841 5840 5836 5836 5833 5829 5830 5834 5832 5832 5838 5840 5835 5830 5829 5831 5831 5829 5829 5830 5829 5828 5827 5827
5843 5844 5844 5845 5845 5846 5846 5846 5846 5846 5847 5847 5848 5848 5849 5849 5849 5849 5848 5848 5848 5849 5849 5849 5850 5850 5852 5853 5855 5856 5852 5850 5850 5849 5848 5848 5849 5850 5849 5848 5848 5847 5847 5846 5845 5844 5843 5842 5842 5840 5839 5840 5841 5841 5840 5839 5837 5837 5835 5836 5838 5838 5838 5839 5838 5836 5832 5831 5829 5824 5824 5829 5829 5829 5835 5836 5830 5826 5826 5827 5828 5826 5826 5826 5825 5824 5824 5824
5840 5840 5841 5841 5841 5842 5842 5842 5842 5843 5843 5843 5844 5844 5845 5845 5845 5845 5845 5845 5845 5845 5845 5845 5846 5846 5848 5850 5852 5852 5850 5849 5847 5845 5844 5844 5846 5846 5846 5845 5844 5843 5843 5843 5842 5841 5839 5839 5838 5837 5835 5835 5837 5836 5836 5835 5833 5832 5830 5830 5833 5833 5834 5836 5833 5831 5828 5826 5825 5819 5816 5824 5828 5828 5831 5830 5825 5823 5822 5823 5824 5823 5823 5822 5821 5820 5820 5820
5837 5837 5837 5838 5838 5838 5838 5839 5839 5839 5839 5840 5840 5841 5841 5841 5842 5842 5841 5841 5841 5841 5841 5841 5842 5842 5843 5847 5849 5847 5847 5846 5844 5842 5841 5842 5842 5843 5842 5841 5841 5840 5839 5839 5838 5837 5835 5835 5834 5833 5832 5831 5833 5832 5832 5831 5828 5828 5826 5824 5827 5827 5830 5833 5827 5825 5826 5822 5821 5815 5808 5817 5826 5826 5827 5825 5820 5819 5819 5820 5819 5820 5821 5820 5818 5816 5816 5817
5833 5833 5833 5834 5834 5834 5835 5835 5835 5835 5836 5836 5836 5837 5837 5837 5838 5838 5838 5838 5837 5837 5837 5837 5838 5837 5838 5843 5845 5843 5843 5841 5840 5840 5839 5839 5839 5839 5839 5838 5837 5836 5835 5835 5834 5833 5832 5831 5829 5828 5828 5828 5828 5829 5829 5826 5823 5824 5822 5820 5821 5819 5823 5828 5824 5823 5825 5820 5816 5811 5802 5809 5821 5823 5823 5820 5816 5815 5814 5816 5816 5816 5818 5818 5816 5814 5812 5813
5829 5829 5829 5829 5830 5830 5831 5831 5831 5832 5832 5832 5832 5832 5833 5833 5833 5834 5834 5834 5833 5833 5833 5833 5833 5833 5834 5838 5840 5839 5839 5836 5836 5836 5836 5836 5835 5835 5835 5834 5833 5832 5831 5831 5830 5829 5828 5826 5824 5824 5824 5824 5825 5825 5824 5821 5819 5821 5818 5815 5815 5813 5814 5821 5824 5823 5822 5816 5811 5806 5798 5802 5814 5819 5819 5816 5813 5811 5810 5813 5814 5813 5814 5814 5813 5810 5808 5809
5824 5825 5825 5825 5825 5826 5826 5826 5827 5827 5827 5827 5827 5828 5828 5828 5829 5829 5829 5830 5829 5829 5829 5828 5829 5828 5829 5833 5835 5835 5834 5832 5832 5832 5832 5832 5832 5832 5831 5830 5829 5828 5827 5827 5826 5825 5824 5821 5820 5819 5819 5821 5822 5821 5818 5814 5815 5818 5814 5810 5811 5810 5809 5814 5820 5822 5819 5812 5806 5801 5794 5796 5807 5813 5814 5812 5810 5808 5808 5810 5810 5809 5809 5809 5808 5806 5805 5805
5820 5820 5820 5820 5821 5821 5821 5822 5822 5822 5822 5823 5823 5823 5823 5823 5824 5824 5824 5825 5825 5824 5824 5824 5825 5823 5823 5827 5830 5830 5829 5828 5828 5828 5828 5829 5828 5828 5827 5826 5825 5824 5823 5822 5822 5821 5819 5817 5815 5815 5816 5818 5819 5817 5811 5808 5811 5813 5809 5807 5806 5806 5805 5807 5813 5818 5816 5809 5801 5796 5791 5793 5802 5806 5807 5809 5807 5804 5804 5807 5806 5804 5804 5803 5802 5802 5802 5802
5815 5815 5815 5816 5816 5816 5816 5817 5817 5817 5817 5817 5818 5818 5818 5818 5819 5819 5819 5820 5820 5820 5819 5819 5820 5819 5819 5822 5824 5825 5824 5823 5823 5823 5824 5825 5824 5823 5822 5821 5821 5820 5819 5818 5818 5816 5813 5812 5811 5811 5814 5815 5815 5811 5805 5804 5806 5806 5804 5803 5801 5801 5801 5802 5806 5810 5809 5804 5798 5792 5787 5790 5796 5799 5801 5804 5804 5800 5800 5804 5802 5799 5799 5798 5797 5798 5798 5798
5810 5810 5810 5811 5811 5811 5811 5811 5811 5812 5812 5812 5812 5813 5813 5813 5813 5814 5814 5814 5815 5815 5814 5814 5815 5814 5814 5816 5818 5818 5818 5818 5818 5818 5820 5821 5820 5819 5817 5816 5816 5816 5815 5814 5813 5811 5809 5807 5806 5808 5812 5812 5808 5804 5801 5801 5801 5799 5798 5797 5796 5796 5796 5798 5800 5801 5799 5795 5794 5792 5787 5786 5789 5792 5796 5798 5799 5797 5797 5798 5796 5795 5795 5794 5794 5793 5793 5792
5805 5805 5806 5806 5806 5806 5806 5806 5806 5806 5807 5806 5806 5807 5807 5807 5807 5808 5808 5809 5809 5809 5809 5808 5808 5808 5809 5811 5811 5810 5811 5811 5812 5814 5815 5816 5815 5814 5812 5811 5811 5810 5810 5809 5807 5805 5805 5801 5801 5806 5808 5804 5800 5798 5798 5798 5796 5794 5793 5792 5791 5789 5789 5794 5794 5794 5793 5785 5784 5789 5787 5783 5784 5787 5790 5791 5793 5795 5795 5792 5789 5790 5790 5790 5790 5788 5787 5787
5800 5800 5800 5801 5801 5801 5801 5801 5801 5801 5801 5801 5801 5801 5801 5801 5802 5802 5803 5804 5804 5803 5803 5803 5802 5802 5804 5805 5803 5803 5803 5804 5806 5809 5810 5810 5809 5808 5807 5806 5805 5805 5804 5803 5801 5800 5799 5795 5798 5802 5800 5796 5795 5794 5794 5793 5791 5790 5789 5787 5786 5784 5784 5787 5787 5787 5788 5780 5777 5781 5779 5777 5781 5783 5783 5784 5787 5790 5791 5788 5783 5783 5784 5786 5784 5782 5782 5782
5795 5795 5795 5795 5796 5796 5796 5796 5796 5796 5796 5796 5796 5796 5796 5796 5796 5796 5796 5797 5799 5799 5797 5798 5797 5796 5798 5797 5797 5797 5797 5798 5801 5802 5803 5803 5803 5801 5801 5800 5800 5799 5798 5797 5797 5795 5791 5791 5795 5796 5792 5791 5790 5790 5788 5787 5787 5786 5785 5782 5780 5781 5780 5780 5780 5781 5781 5777 5775 5775 5771 5770 5774 5776 5777 5779 5783 5785 5785 5783 5780 5777 5778 5780 5780 5777 5777 5777
5789 5790 5790 5790 5790 5790 5790 5790 5790 5790 5790 5791 5791 5791 5791 5791 5790 5790 5789 5789 5792 5795 5793 5793 5791 5790 5791 5789 5790 5792 5791 5794 5795 5795 5796 5795 5795 5795 5794 5794 5793 5793 5793 5793 5792 5789 5786 5787 5790 5788 5786 5786 5785 5784 5783 5782 5782 5781 5779 5777 5776 5778 5776 5773 5774 5776 5776 5773 5772 5770 5768 5766 5766 5767 5769 5772 5779 5781 5778 5777 5776 5773 5772 5773 5774 5773 5772 5772
5783 5784 5784 5784 5785 5785 5785 5785 5784 5784 5785 5785 5785 5785 5785 5785 5784 5784 5784 5782 5783 5787 5789 5788 5786 5784 5783 5783 5784 5785 5786 5788 5788 5789 5789 5788 5788 5788 5787 5787 5787 5787 5787 5787 5786 5783 5783 5783 5783 5783 5782 5781 5779 5778 5777 5776 5776 5775 5773 5772 5773 5774 5771 5769 5768 5768 5769 5769 5768 5766 5764 5763 5761 5761 5761 5764 5770 5774 5773 5772 5770 5769 5769 5767 5767 5767 5767 5767
5777 5777 5777 5778 5779 5779 5779 5779 5778 5778 5779 5779 5778 5778 5779 5779 5779 5778 5778 5777 5777 5779 5780 5780 5780 5778 5778 5778 5779 5780 5781 5781 5782 5782 5782 5782 5782 5781 5781 5781 5780 5780 5780 5779 5778 5777 5778 5779 5778 5778 5776 5775 5774 5773 5772 5771 5770 5769 5769 5769 5769 5768 5766 5766 5764 5763 5762 5763 5764 5763 5760 5757 5758 5758 5758 5758 5761 5763 5766 5767 5765 5765 5764 5762 5762 5760 5759 5760
5771 5771 5771 5771 5772 5773 5773 5772 5772 5773 5773 5772 5772 5772 5772 5772 5773 5773 5773 5772 5772 5772 5769 5767 5771 5772 5773 5774 5774 5775 5775 5775 5776 5775 5775 5775 5775 5774 5774 5774 5773 5773 5772 5771 5770 5770 5772 5773 5772 5771 5770 5768 5768 5768 5767 5765 5763 5762 5764 5764 5763 5762 5761 5761 5760 5759 5757 5756 5757 5758 5756 5753 5753 5754 5755 5755 5755 5754 5756 5758 5758 5759 5759 5758 5757 5754 5751 5751
5764 5764 5765 5765 5766 5766 5767 5766 5766 5767 5767 5766 5766 5766 5766 5766 5767 5768 5768 5766 5766 5765 5760 5758 5762 5766 5768 5769 5769 5770 5768 5769 5770 5769 5768 5768 5768 5768 5767 5767 5767 5766 5766 5765 5764 5765 5765 5765 5764 5764 5763 5762 5762 5762 5761 5759 5758 5757 5758 5757 5756 5756 5755 5755 5755 5754 5753 5752 5752 5752 5752 5750 5748 5749 5750 5751 5750 5748 5747 5749 5749 5750 5751 5751 5750 5748 5745 5743
5757 5758 5758 5759 5760 5760 5760 5760 5759 5760 5760 5760 5760 5761 5761 5762 5763 5763 5763 5761 5759 5757 5754 5753 5757 5759 5761 5762 5763 5763 5762 5763 5764 5762 5762 5762 5761 5762 5761 5761 5761 5760 5760 5759 5758 5760 5759 5758 5758 5757 5757 5757 5757 5757 5756 5755 5754 5753 5753 5751 5750 5750 5749 5749 5748 5747 5747 5748 5747 5747 5748 5746 5744 5745 5745 5745 5746 5743 5740 5742 5743 5743 5742 5741 5741 5740 5739 5737
5751 5752 5752 5753 5753 5753 5753 5753 5753 5754 5754 5754 5754 5755 5756 5756 5757 5758 5757 5754 5750 5750 5751 5752 5753 5753 5754 5754 5756 5757 5756 5757 5757 5756 5756 5756 5756 5756 5755 5755 5755 5754 5755 5754 5754 5754 5753 5753 5752 5751 5751 5752 5752 5751 5751 5750 5749 5749 5748 5747 5745 5744 5743 5743 5742 5742 5741 5741 5742 5743 5744 5742 5740 5742 5742 5740 5741 5741 5737 5736 5736 5736 5736 5733 5730 5730 5729 5728
5745 5745 5746 5747 5747 5747 5747 5747 5747 5748 5748 5748 5748 5749 5750 5750 5752 5752 5749 5747 5745 5746 5749 5749 5748 5748 5749 5749 5749 5750 5750 5750 5751 5751 5751 5751 5751 5750 5749 5749 5749 5749 5748 5748 5749 5749 5747 5747 5746 5746 5746 5746 5746 5746 5746 5745 5743 5743 5743 5743 5741 5738 5738 5736 5735 5736 5733 5734 5739 5741 5739 5737 5735 5737 5738 5736 5736 5737 5735 5732 5729 5728 5728 5725 5723 5721 5720 5719
5738 5738 5739 5740 5741 5741 5742 5740 5740 5741 5742 5742 5743 5744 5744 5745 5746 5745 5741 5742 5743 5744 5745 5744 5742 5744 5745 5744 5744 5743 5744 5744 5745 5745 5746 5746 5746 5745 5745 5744 5743 5743 5742 5741 5742 5742 5741 5741 5741 5741 5740 5740 5740 5740 5740 5739 5738 5738 5737 5737 5735 5733 5732 5730 5729 5729 5726 5728 5735 5735 5731 5731 5731 5732 5733 5732 5732 5732 5731 5728 5725 5722 5720 5717 5715 5712 5712 5713
5732 5732 5733 5734 5735 5735 5735 5734 5734 5734 5735 5736 5736 5737 5739 5739 5740 5738 5737 5739 5739 5739 5741 5740 5737 5738 5738 5739 5740 5738 5738 5737 5737 5738 5739 5739 5740 5740 5740 5740 5738 5737 5736 5736 5735 5734 5735 5735 5735 5734 5734 5735 5733 5732 5732 5732 5732 5731 5730 5729 5727 5726 5725 5723 5722 5722 5721 5724 5728 5726 5723 5721 5726 5731 5730 5728 5729 5728 5726 5723 5719 5717 5713 5708 5705 5704 5705 5708
5727 5727 5728 5728 5729 5729 5728 5728 5728 5727 5728 5729 5729 5731 5733 5733 5733 5733 5734 5736 5735 5734 5736 5734 5732 5733 5732 5733 5733 5733 5732 5730 5730 5731 5731 5732 5733 5734 5734 5734 5734 5732 5730 5730 5729 5727 5728 5729 5730 5728 5727 5728 5726 5724 5724 5724 5724 5722 5722 5721 5719 5718 5716 5712 5714 5714 5714 5718 5720 5717 5714 5712 5719 5727 5727 5727 5727 5723 5720 5717 5713 5710 5706 5700 5698 5699 5700 5701
5720 5721 5722 5723 5724 5723 5722 5722 5721 5721 5721 5721 5723 5724 5725 5726 5727 5728 5730 5731 5729 5729 5729 5728 5727 5728 5727 5727 5726 5726 5725 5723 5723 5724 5723 5724 5724 5725 5727 5727 5727 5726 5724 5722 5721 5721 5718 5720 5725 5723 5719 5720 5720 5718 5717 5715 5714 5713 5714 5712 5710 5712 5708 5703 5704 5705 5704 5707 5707 5706 5703 5703 5712 5722 5723 5724 5723 5718 5713 5708 5704 5702 5699 5696 5695 5695 5693 5692
5714 5715 5716 5716 5717 5716 5715 5714 5714 5713 5713 5714 5716 5717 5719 5721 5722 5722 5723 5723 5721 5721 5723 5723 5723 5721 5721 5721 5720 5720 5719 5715 5715 5715 5715 5715 5715 5716 5718 5718 5719 5718 5715 5713 5712 5712 5708 5709 5717 5715 5710 5712 5713 5711 5710 5707 5705 5704 5705 5702 5702 5705 5702 5696 5694 5694 5695 5692 5691 5694 5692 5694 5703 5711 5716 5718 5716 5714 5704 5695 5694 5695 5694 5692 5691 5689 5686 5684
5708 5708 5709 5710 5709 5708 5708 5708 5707 5706 5706 5707 5707 5710 5714 5716 5715 5715 5715 5715 5714 5714 5714 5715 5716 5714 5713 5713 5713 5714 5711 5708 5707 5707 5706 5706 5706 5708 5710 5710 5710 5709 5708 5705 5702 5701 5697 5699 5707 5707 5702 5703 5703 5702 5702 5699 5696 5695 5694 5694 5696 5696 5693 5688 5683 5683 5684 5676 5676 5682 5682 5686 5690 5693 5705 5713 5710 5704 5691 5683 5688 5690 5687 5684 5682 5681 5680 5679
5701 5701 5702 5703 5701 5700 5702 5701 5700 5699 5699 5699 5700 5705 5709 5708 5708 5708 5708 5708 5708 5706 5705 5705 5706 5706 5705 5705 5705 5704 5702 5700 5700 5699 5699 5699 5697 5699 5702 5702 5701 5701 5701 5698 5694 5693 5689 5689 5698 5701 5696 5693 5693 5693 5693 5691 5687 5685 5684 5687 5689 5686 5683 5681 5673 5672 5672 5664 5663 5669 5671 5676 5677 5678 5693 5704 5699 5688 5679 5678 5683 5681 5677 5675 5674 5674 5673 5673
5693 5694 5696 5696 5694 5693 5694 5694 5693 5693 5691 5690 5694 5700 5702 5701 5702 5702 5701 5701 5700 5698 5697 5696 5696 5697 5697 5698 5697 5696 5694 5693 5692 5691 5691 5692 5690 5692 5695 5694 5693 5692 5692 5690 5686 5685 5682 5678 5683 5692 5691 5685 5683 5685 5686 5685 5680 5678 5677 5678 5678 5675 5672 5671 5665 5662 5661 5656 5653 5655 5657 5662 5665 5669 5680 5686 5682 5676 5671 5672 5674 5671 5669 5667 5666 5666 5665 5664
5686 5687 5689 5689 5687 5685 5686 5686 5685 5685 5683 5684 5689 5694 5695 5694 5694 5693 5693 5693 5692 5690 5689 5689 5688 5687 5688 5689 5689 5689 5688 5686 5685 5684 5683 5683 5683 5685 5686 5684 5685 5685 5683 5682 5678 5677 5676 5669 5668 5679 5684 5678 5673 5675 5679 5680 5676 5672 5671 5669 5668 5666 5663 5662 5658 5655 5654 5649 5646 5645 5644 5648 5655 5662 5666 5666 5666 5667 5664 5662 5661 5661 5661 5659 5658 5658 5657 5655
5678 5679 5680 5682 5681 5677 5677 5677 5677 5677 5676 5679 5684 5686 5686 5686 5686 5686 5686 5684 5682 5681 5680 5680 5680 5679 5680 5681 5680 5680 5680 5678 5678 5677 5675 5675 5675 5677 5678 5677 5677 5676 5673 5673 5671 5669 5668 5662 5658 5665 5671 5669 5666 5668 5671 5673 5669 5664 5661 5660 5660 5659 5656 5653 5649 5650 5650 5642 5639 5638 5633 5638 5648 5651 5650 5650 5652 5655 5654 5653 5651 5651 5651 5649 5648 5648 5646 5645
5670 5671 5671 5673 5672 5670 5669 5667 5669 5671 5669 5671 5676 5677 5677 5678 5679 5680 5677 5675 5673 5672 5671 5671 5671 5671 5671 5672 5672 5672 5670 5669 5670 5669 5667 5668 5668 5668 5671 5670 5669 5668 5665 5664 5664 5662 5659 5655 5651 5653 5657 5658 5661 5664 5663 5660 5659 5656 5652 5652 5654 5653 5651 5645 5638 5642 5645 5636 5633 5630 5622 5627 5639 5639 5637 5638 5639 5639 5640 5641 5640 5640 5640 5639 5638 5636 5635 5635
5663 5663 5664 5664 5662 5661 5660 5658 5662 5663 5660 5664 5669 5668 5667 5668 5670 5672 5670 5667 5665 5663 5663 5662 5662 5662 5662 5662 5663 5663 5661 5659 5660 5660 5659 5660 5661 5660 5662 5662 5659 5659 5657 5655 5655 5655 5652 5648 5644 5643 5645 5647 5651 5655 5654 5650 5648 5647 5642 5643 5645 5643 5643 5638 5630 5632 5634 5628 5627 5624 5614 5615 5626 5629 5627 5627 5627 5627 5626 5627 5627 5628 5629 5629 5629 5628 5627 5626
5656 5655 5656 5656 5654 5653 5652 5652 5655 5654 5653 5657 5659 5657 5657 5658 5661 5664 5662 5659 5656 5655 5655 5654 5654 5654 5653 5654 5654 5653 5653 5650 5649 5651 5650 5649 5652 5653 5653 5653 5651 5650 5649 5646 5647 5647 5644 5640 5636 5634 5635 5636 5638 5642 5644 5642 5640 5636 5632 5635 5635 5633 5633 5631 5625 5624 5621 5617 5620 5617 5607 5606 5615 5621 5620 5617 5617 5617 5615 5616 5618 5618 5619 5620 5620 5620 5619 5617
5648 5647 5647 5647 5645 5644 5644 5647 5649 5646 5646 5649 5649 5649 5650 5650 5653 5656 5654 5651 5648 5646 5646 5645 5646 5646 5646 5646 5646 5645 5645 5641 5639 5643 5643 5641 5643 5644 5644 5643 5642 5642 5641 5638 5638 5639 5635 5632 5630 5625 5623 5624 5627 5632 5633 5633 5631 5626 5623 5626 5626 5625 5625 5621 5620 5619 5609 5606 5612 5608 5599 5601 5607 5610 5610 5610 5609 5609 5608 5609 5610 5610 5610 5610 5610 5610 5609 5608
5638 5637 5637 5638 5637 5636 5637 5639 5639 5637 5638 5640 5639 5641 5643 5642 5645 5647 5644 5643 5641 5639 5637 5637 5638 5638 5638 5638 5638 5637 5637 5634 5631 5632 5634 5634 5633 5634 5634 5634 5634 5634 5633 5631 5631 5629 5624 5622 5622 5619 5614 5613 5616 5620 5623 5624 5622 5617 5615 5617 5617 5617 5616 5612 5611 5609 5601 5599 5602 5597 5591 5596 5601 5600 5599 5601 5601 5601 5601 5601 5600 5600 5599 5599 5599 5599 5598 5598
5629 5628 5628 5629 5627 5627 5629 5630 5629 5629 5631 5630 5629 5632 5634 5634 5636 5636 5634 5634 5633 5631 5630 5629 5630 5631 5630 5631 5630 5627 5628 5628 5625 5623 5625 5627 5625 5625 5625 5625 5625 5626 5625 5624 5624 5621 5614 5610 5613 5612 5607 5606 5607 5609 5613 5613 5610 5607 5606 5608 5609 5608 5607 5604 5600 5595 5595 5593 5589 5588 5588 5587 5589 5591 5590 5591 5591 5590 5591 5590 5589 5589 5589 5588 5589 5588 5588 5587
5620 5620 5620 5620 5618 5620 5622 5621 5621 5621 5622 5620 5619 5623 5626 5626 5626 5626 5625 5624 5624 5623 5622 5621 5622 5622 5621 5623 5620 5616 5618 5620 5617 5616 5618 5618 5618 5617 5616 5616 5616 5616 5616 5615 5614 5613 5605 5599 5603 5604 5599 5599 5600 5600 5603 5601 5597 5596 5596 5597 5600 5599 5598 5596 5590 5588 5590 5584 5576 5582 5586 5578 5577 5581 5580 5578 5580 5579 5579 5580 5579 5579 5578 5578 5577 5577 5576 5576
5612 5612 5612 5612 5611 5613 5614 5614 5614 5612 5613 5612 5610 5614 5619 5619 5618 5617 5616 5614 5614 5615 5613 5612 5615 5615 5613 5613 5610 5606 5608 5609 5607 5609 5610 5608 5608 5608 5606 5607 5607 5606 5608 5606 5604 5603 5596 5589 5594 5595 5588 5589 5592 5591 5592 5590 5585 5584 5584 5584 5587 5588 5588 5586 5582 5582 5582 5573 5567 5575 5577 5570 5568 5570 5567 5566 5567 5566 5567 5567 5567 5567 5566 5565 5565 5564 5564 5564
5603 5604 5604 5604 5604 5606 5606 5606 5606 5604 5605 5604 5602 5606 5611 5609 5609 5609 5606 5603 5604 5606 5604 5603 5607 5608 5605 5603 5601 5598 5599 5599 5598 5601 5601 5598 5598 5598 5596 5597 5597 5597 5598 5597 5595 5593 5587 5581 5585 5584 5578 5578 5582 5582 5582 5579 5574 5573 5572 5571 5573 5576 5578 5577 5574 5574 5573 5564 5561 5564 5562 5558 5558 5557 5555 5554 5554 5554 5554 5554 5554 5554 5553 5553 5553 5553 5553 5552
5595 5596 5596 5595 5596 5598 5597 5597 5597 5596 5597 5595 5593 5598 5600 5597 5599 5600 5596 5593 5593 5595 5595 5593 5596 5598 5596 5594 5593 5589 5590 5590 5588 5590 5592 5590 5588 5588 5586 5585 5586 5587 5587 5587 5585 5583 5578 5573 5575 5574 5567 5565 5572 5574 5570 5566 5563 5561 5560 5561 5564 5565 5566 5566 5565 5565 5562 5555 5554 5554 5548 5547 5548 5545 5543 5542 5540 5541 5541 5541 5542 5542 5540 5541 5541 5540 5541 5541
5586 5586 5588 5587 5588 5589 5589 5588 5588 5587 5589 5589 5587 5588 5588 5587 5590 5590 5587 5585 5584 5584 5586 5585 5586 5588 5586 5585 5584 5581 5580 5581 5580 5579 5581 5580 5578 5578 5576 5574 5575 5577 5577 5577 5575 5573 5569 5564 5564 5565 5555 5552 5563 5564 5556 5553 5551 5547 5549 5555 5558 5557 5554 5554 5554 5554 5550 5546 5545 5543 5537 5536 5537 5534 5531 5529 5528 5528 5529 5528 5529 5529 5528 5528 5528 5528 5528 5528
5577 5577 5579 5579 5579 5581 5581 5580 5580 5579 5581 5582 5580 5579 5579 5579 5581 5580 5578 5577 5576 5576 5577 5577 5576 5576 5576 5576 5575 5573 5572 5572 5571 5570 5569 5568 5568 5567 5566 5563 5563 5565 5566 5566 5563 5562 5561 5555 5554 5553 5543 5541 5552 5552 5544 5541 5534 5531 5541 5550 5550 5548 5545 5542 5542 5542 5541 5537 5533 5530 5527 5526 5525 5523 5520 5519 5517 5517 5517 5517 5517 5517 5516 5515 5515 5516 5515 5515